Location: Praha
(50.0830°N, 14.4670°E)
Time: 11:41:55
(UTC+02:00)

ISS - Pass Details

Date: 10 May 2025
Orbit: 416 x 420 km, 51.6° (Epoch: 12 May)

Event Time Altitude Azimuth Distance (km) Brightness Sun altitude
Exits shadow 03:05:52 43° 242° (WSW) 599 -3.4 -16.7°
Maximum altitude 03:06:27 49° 207° (SSW) 544 -3.7 -16.6°
Drops below altitude 10° 03:09:42 10° 131° (SE) 1,490 -1.1 -16.4°
Sets 03:11:49 0° 126° (SE) 2,350 0.0 -16.2°
